Flag for Germany Weather past 2 weeks in Bad Mergentheim, Baden-Württemberg, Germany

Now
77 °F

Passing clouds.


Feels Like: 78 °F
Forecast: 56 / 79 °F
Wind: 7 mph from East

Location: Niederstetten

Current Time: Jul 24, 2014 at 5:29:21 PM

Latest Report: Jul 24, 2014 at 4:20 PM


Visibility: N/A

Pressure: 29.92 "Hg

Humidity: 39%

Dew point: 50 °F

Location of Bad MergentheimLocation

Historic Weather in Bad Mergentheim — Graph

°F

Bad Mergentheim temperature yesterday

Maximum temperature yesterday: 81 °F (at 3:20 PM)
Minimum temperature yesterday: 59 °F (at 5:20 AM)
Average temperature yesterday: 70 °F

Past Weeks' High & Low Weather Summary

 TemperatureHumidityPressure
High88 °F (Jul 19, 3:20 PM)100% (Jul 9, 10:20 PM)30.30 "Hg (Jul 9, 10:20 PM)
Low50 °F (Jul 9, 10:20 PM)25% (Jul 19, 3:20 PM)29.77 "Hg (Jul 9, 4:20 PM)
Average66 °F73%29.98 "Hg
* Reported Jul 9 4:20 PM — Jul 24 4:20 PM, Bad Mergentheim, Weather by CustomWeather, © 2014

Note: Actual official high and low records may vary slightly from our data, if they occured in-between our weather recording intervals... More about our weather records

Advertising

Bad Mergentheim weather history for previous 24 hours

 ConditionsComfort  
Time TempWeatherWind HumidityBarometerVisibility
4:20 PM
Jul 24
77 °FPassing clouds.7 mph39%29.92 "HgN/A
3:20 PM75 °FScattered clouds.5 mph44%29.95 "HgN/A
2:20 PM77 °FScattered clouds.6 mph39%29.95 "HgN/A
1:20 PM75 °FScattered clouds.7 mph44%29.95 "HgN/A
12:20 PM75 °FPassing clouds.10 mph44%29.95 "HgN/A
11:20 AM72 °FPassing clouds.8 mph53%29.95 "HgN/A
10:20 AM70 °FPassing clouds.9 mph53%29.95 "HgN/A
9:20 AM66 °FPassing clouds.8 mph64%29.95 "HgN/A
8:20 AM64 °FPassing clouds.6 mph64%29.95 "HgN/A
7:20 AM61 °FPassing clouds.5 mph77%29.95 "HgN/A
6:20 AM55 °FPassing clouds.6 mph88%29.95 "HgN/A
5:20 AM57 °FPassing clouds.5 mph82%29.95 "HgN/A
4:20 AM59 °FPassing clouds.5 mph77%29.95 "HgN/A
3:20 AM59 °FPassing clouds.6 mph77%29.95 "HgN/A
2:20 AM59 °FPassing clouds.6 mph77%29.98 "HgN/A
1:20 AM61 °FPassing clouds.6 mph72%29.98 "HgN/A
12:20 AM63 °FPassing clouds.6 mph68%29.98 "HgN/A
11:20 PM
Jul 23
63 °FPassing clouds.6 mph73%30.01 "HgN/A
10:20 PM66 °FPassing clouds.3 mph64%30.01 "HgN/A
9:20 PM68 °FScattered clouds.5 mph60%29.98 "HgN/A
8:20 PM73 °FScattered clouds.6 mph53%29.98 "HgN/A
7:20 PM75 °FScattered clouds.7 mph50%29.98 "HgN/A
6:20 PM75 °FPartly sunny.5 mph50%29.98 "HgN/A
5:20 PM70 °FScattered clouds.8 mph69%30.01 "HgN/A
Weather by CustomWeather, © 2014

See weather overviewHow to use our weather pages